Location: Branche des Alpilles
(43.6087°N, 4.6976°E)
Time: 20:16:48
(UTC+00:00)

N. Korean satellite - Pass Details

Date: 05 October 2021
Orbit: 450 x 495 km, 97.3° (Epoch: 25 October)

Event Time Altitude Azimuth Distance (km) Brightness Sun altitude
Rises 05:05:52 0° 10° (N) 2,562 10.4 -7.6°
Reaches altitude 10° 05:07:56 10° 9° (N) 1,683 9.4 -7.3°
Maximum altitude 05:11:33 78° 284° (WNW) 509 6.5 -6.6°
Drops below altitude 10° 05:15:11 10° 198° (SSW) 1,685 9.1 -5.9°
Sets 05:17:15 0° 197° (SSW) 2,565 10.1 -5.6°
